Simultaneous Nadir Overpasses (SNOs) Predictions

Prediction of SNOs between GOES-17 and LANDSAT-8 Satellite Orbit:

Table of predicted SNOs for the next 14.0 days since TLE Epoch: 5/21/2022
Index Date Time (GOES-17) GOES-17 Lat,Lon LANDSAT-8 Lat,Lon Distance(km) Time Diff (sec)
1 05/21/2022 07:13:20 -0.04,-137.17 0.41,-135.00 246.55 80
2 05/21/2022 19:31:56 0.03,-137.18 0.65,-140.17 339.52 80
3 05/23/2022 19:19:44 0.03,-137.16 0.05,-137.20 4.66 80
4 05/25/2022 19:10:12 0.03,-137.15 -0.57,-134.24 330.50 80
5 05/26/2022 07:28:56 -0.03,-137.14 -0.53,-139.43 260.77 80
6 05/28/2022 07:19:24 -0.03,-137.11 0.11,-136.47 73.77 80
7 05/30/2022 07:04:32 -0.02,-137.09 0.77,-133.51 407.62 80
8 05/30/2022 19:25:47 0.02,-137.08 0.34,-138.66 178.94 80
9 06/01/2022 19:16:14 0.01,-137.05 -0.27,-135.69 154.05 80
10 06/02/2022 07:37:38 -0.01,-137.03 -0.81,-140.88 437.56 80
11 06/03/2022 19:04:01 0.00,-137.00 -0.91,-132.72 486.53 80
